Regional Weather Roundup
Issued by NWS New Orleans/Baton Rouge, LA

Home | Current Version | Previous Version | Text Only | Print | Product List | Glossary Off
Versions: 1 2 3 4 5 6 7 8 9 10 11 12 13 14 15 16 17 18 19 20 21 22 23 24 25 26 27 28 29 30 31 32 33 34 35 36 37 38 39 40 41 42 43 44 45 46 47 48 49 50

265
ASUS44 KLIX 192101
RWRLIX
NEW ORLEANS REGIONAL WEATHER ROUNDUP
NATIONAL WEATHER SERVICE NEW ORLEANS LA
400 PM CDT SAT APR 19 2014

NOTE: "FAIR" INDICATES FEW OR NO CLOUDS BELOW 12,000 FEET WITH NO
      SIGNIFICANT WEATHER AND/OR OBSTRUCTIONS TO VISIBILITY.
      SKY/WX - SKY CONDITION AND SIGNIFICANT WEATHER.
      TMP - AIR TEMPERATURE.     DP    - DEWPOINT TEMPERATURE.
      RH  - RELATIVE HUMIDITY.   PRES  - PRESSURE.
      HI  - HEAT INDEX.          WCI   - WIND CHILL INDEX.

*  THESE STATIONS ARE NOT NWS OR FAA STATIONS AND ARE NOT UNDER
   NWS QUALITY CONTROL.

LAZ038-040-048-061>063-065>067-069-192200-
SOUTHEAST LOUISIANA

CITY           SKY/WX    TMP DP  RH WIND       PRES   REMARKS
N.O. AUDUBON   NOT AVBL
N.O. INTL ARPT MOSUNNY   76  53  44 NW12      30.09F
N.O. LAKEFRONT SUNNY     71  58  63 W10       30.09F
N.O. DOWNTOWN*   N/A     77  48  36 NW7       30.10F
SLIDELL        SUNNY     79  50  36 N12       30.07F
BATON ROUGE    SUNNY     81  52  36 VRB5      30.10F
BOOTHVILLE     SUNNY     71  53  52 NW12      30.09F
BELLE CHASSE   MOSUNNY   77  48  35 N6G17     30.08F
BOGALUSA*        N/A     80  49  34 N13       30.09F
GALLIANO*      NOT AVBL
NEW ROADS*     NOT AVBL
GONZALES*        N/A     78  51  39 N6G21     30.09F
HAMMOND*       NOT AVBL
HOUMA*         SUNNY     79  48  34 N12       30.09F
PORT FOURCHON* CLEAR     72  54  53 VRB3      30.12F

$$

MSZ070-080>082-192200-
SOUTHERN MISSISSIPPI

CITY           SKY/WX    TMP DP  RH WIND       PRES   REMARKS
MCCOMB         SUNNY     78  49  35 NW13G18   30.10F
GULFPORT       SUNNY     82  50  32 NW15G22   30.04F
BILOXI         SUNNY     78  52  39 N10       30.04F
PASCAGOULA     SUNNY     79  50  36 N12G24    30.04F
STENNIS ARPT*  SUNNY     79  46  31 N12G17    30.06F

$$

COASTAL OBSERVATIONS
LAKE AND NEARSHORE STATIONS

STATION/POSITION TIME  TEMP    WIND        PRES    WAVE
                       AIR SEA DIR/SP/G            HT/PER
                 (UTC) (F)     (DEG/KT/KT) (MB)    (FT/S)
PASCAGOULA       2000   77     350/ 12/ 16 1016.8
WAVELAND YACHT   2000   74 69  350/ 11/ 18 1017.5
GRAND ISLE       2000   72 67  360/  3/  4 1020.0
SOUTHWEST PASS   2000   73 59  320/  6/  8 1019.8
NEW CANAL        2000   72 66  260/  5/  7 1019.7
SHELL BEACH      2000   71 65  300/ 10/ 11 1018.7

OFFSHORE STATIONS

STATION/POSITION TIME  TEMP    WIND        PRES    WAVE
                       AIR SEA DIR/SP/G            HT/PER
                 (UTC) (F)     (DEG/KT/KT) (MB)    (FT/S)
64 S DAUPHIN ISL 2020   65 71  300/ 16/ 17 1018.3

$$




USA.gov is the U.S. government's official web portal to all federal, state and local government web resources and services.